Weather Service Report


378 
ASUS44 KOUN 060110
RWROK 

WEATHER ROUNDUP FOR OKLAHOMA
NATIONAL WEATHER SERVICE NORMAN OK
700 PM CST MON DEC 05 2016

NOTE: "FAIR" INDICATES FEW OR NO CLOUDS BELOW 12,000 FEET WITH NO
      SIGNIFICANT WEATHER AND/OR OBSTRUCTIONS TO VISIBILITY.

OKZ001>007-009>012-014-015-017-060200-
NORTHWEST OKLAHOMA AND THE PANHANDLE
  
CITY           SKY/WX    TMP DP  RH WIND       PRES   REMARKS
GAGE           CLEAR     43  35  73 S8        29.61R                  
GUYMON         CLEAR     47  28  47 SW10      29.57R                  
ENID/WOODRING  PTCLDY    39  37  93 SE5       29.67R                  
$$

OKZ016-021>023-033>039-044-045-060200-
SOUTHWEST OKLAHOMA
  
CITY           SKY/WX    TMP DP  RH WIND       PRES   REMARKS
LAWTON/REGL    CLEAR     45  41  86 SE6       29.67S                  
LAWTON/FT SILL CLEAR     42  42  99 S6        29.65S                  
FREDERICK      CLEAR     46  43  89 SE12      29.62F                  
CLINTON        CLEAR     44  40  85 S13       29.65R                  
HOBART         CLEAR     42  39  89 S7        29.65S                  
ALTUS AFB      CLEAR     41  38  88 SE7       29.65R                  
$$

OKZ018>020-024>031-060200-
CENTRAL OKLAHOMA
  
CITY           SKY/WX    TMP DP  RH WIND       PRES   REMARKS
OKLAHOMA CITY  PTCLDY    39  37  92 SE8       29.68R WCI  33          
OKC/WILEY POST CLEAR     44  40  85 SE9       29.68R                  
OKC/TINKER AFB MOCLDY    45  41  87 SE6       29.67S                  
STILLWATER     CLOUDY    42  38  85 SE7       29.69R                  
GUTHRIE        CLOUDY    44  40  85 S7        29.68S                  
$$

OKZ008-013-054>072-060200-
NORTHEAST OKLAHOMA
  
CITY           SKY/WX    TMP DP  RH WIND       PRES   REMARKS
TULSA          CLOUDY    46  42  86 SE6       29.72R                  
TULSA/JONES    CLOUDY    46  40  79 SE7       29.72S                  
PONCA CITY     CLEAR     42  36  79 SE6       29.69R                  
BARTLESVILLE   MOCLDY    38  36  92 CALM      29.75R                  
MUSKOGEE       CLOUDY    42  40  92 SE5       29.74S                  
$$

OKZ032-040>043-046>053-073>077-060200-
SOUTH CENTRAL/SOUTHEAST OKLAHOMA
  
CITY           SKY/WX    TMP DP  RH WIND       PRES   REMARKS
ARDMORE/DWNTWN CLOUDY    46  43  87 CALM      29.71R                  
MCALESTER      CLOUDY    49  43  80 SE5       29.72F                  
$$

  

Return to Home page


Western Regional Climate Center, wrcc@dri.edu